Location: *
(45.4590°N, 16.3650°E)
Time: 18:56:52
(UTC+00:00)

STARLINK-1095 - Pass Details

Date: 17 January 2020
Orbit: 348 x 351 km, 53.0° (Epoch: 25 February)

Event Time Altitude Azimuth Distance (km) Brightness Sun altitude
Rises 17:23:59 0° 241° (WSW) 2,236 8.1 -17.9°
Reaches altitude 10° 17:26:01 10° 243° (WSW) 1,390 6.8 -18.3°
Maximum altitude 17:29:07 75° 329° (NNW) 397 2.8 -18.8°
Enters shadow 17:29:18 72° 7° (N) 404 2.8 -18.9°
